SWR3KP EHAM-LSZH

Flight info

Callsign SWR3KP
Flight time 0h 54m
Altitude 33000
Route EDUPO Z739 MISGO DCT ASBON DCT TUSUK DCT LAMGO/N0433F270 T721 SUL/N0420F250 T721 RILAX
Aircraft A320/M-SDE3FGHIRWY/LB1

Departure

Time 2026-04-30 12:26
Airport Amsterdam Airport Schiphol (EHAM)

Arrival

Time 2026-04-30 13:20
Airport Zürich Airport (LSZH)
Time Latitude Longitude Altitude Speed Heading
2026-04-30 11:50 52.30506 4.76551 -1 ft 0 kts 58°
2026-04-30 12:14 52.30496 4.76522 0 ft 4 kts 63°
2026-04-30 12:14 52.30487 4.76486 0 ft 3 kts 82°
2026-04-30 12:14 52.30488 4.76462 0 ft 2 kts 127°
2026-04-30 12:15 52.30496 4.76449 0 ft 2 kts 140°
2026-04-30 12:15 52.30504 4.76439 0 ft 2 kts 147°
2026-04-30 12:15 52.30510 4.76433 -1 ft 0 kts 148°
2026-04-30 12:18 52.30490 4.76453 -1 ft 4 kts 148°
2026-04-30 12:18 52.30461 4.76483 -1 ft 6 kts 148°
2026-04-30 12:18 52.30414 4.76532 -1 ft 8 kts 148°
2026-04-30 12:18 52.30358 4.76609 -1 ft 13 kts 118°
2026-04-30 12:19 52.30313 4.76750 -1 ft 15 kts 120°
2026-04-30 12:19 52.30338 4.76889 -1 ft 13 kts 58°
2026-04-30 12:19 52.30382 4.77004 -1 ft 11 kts 58°
2026-04-30 12:19 52.30434 4.77140 -1 ft 17 kts 58°
2026-04-30 12:20 52.30494 4.77298 -1 ft 16 kts 58°
2026-04-30 12:20 52.30548 4.77439 -1 ft 14 kts 58°
2026-04-30 12:20 52.30604 4.77551 -1 ft 12 kts 38°
2026-04-30 12:20 52.30710 4.77594 -1 ft 18 kts
2026-04-30 12:21 52.30841 4.77605 -1 ft 20 kts
2026-04-30 12:21 52.30983 4.77617 -1 ft 21 kts
2026-04-30 12:21 52.31135 4.77630 -1 ft 22 kts
2026-04-30 12:21 52.31284 4.77646 -1 ft 20 kts
2026-04-30 12:22 52.31418 4.77654 -1 ft 17 kts 355°
2026-04-30 12:22 52.31517 4.77555 -1 ft 18 kts 314°
2026-04-30 12:22 52.31577 4.77378 -1 ft 19 kts 276°
2026-04-30 12:22 52.31571 4.77156 -1 ft 20 kts 266°
2026-04-30 12:23 52.31562 4.76920 -1 ft 21 kts 266°
2026-04-30 12:23 52.31554 4.76670 -1 ft 23 kts 266°
2026-04-30 12:23 52.31545 4.76428 -1 ft 21 kts 266°
2026-04-30 12:23 52.31537 4.76197 -1 ft 20 kts 267°
2026-04-30 12:24 52.31542 4.76042 -1 ft 12 kts 296°
2026-04-30 12:24 52.31614 4.76015 -1 ft 12 kts 37°
2026-04-30 12:24 52.31657 4.76115 0 ft 10 kts 57°
2026-04-30 12:24 52.31690 4.76200 0 ft 8 kts 58°
2026-04-30 12:25 52.31714 4.76282 -1 ft 11 kts 72°
2026-04-30 12:25 52.31726 4.76460 -2 ft 44 kts 86°
2026-04-30 12:25 52.31759 4.77383 -2 ft 114 kts 87°
2026-04-30 12:25 52.31814 4.78989 15 ft 165 kts 86°
2026-04-30 12:26 52.31896 4.81460 893 ft 162 kts 86°
2026-04-30 12:26 52.31964 4.83324 1404 ft 171 kts 85°
2026-04-30 12:26 52.32023 4.84683 1593 ft 184 kts 85°
2026-04-30 12:26 52.32026 4.86896 1829 ft 207 kts 103°
2026-04-30 12:27 52.31472 4.89144 2133 ft 221 kts 118°
2026-04-30 12:27 52.30765 4.91514 2435 ft 248 kts 116°
2026-04-30 12:27 52.30030 4.94217 3015 ft 270 kts 115°
2026-04-30 12:27 52.29337 4.97127 4037 ft 279 kts 108°
2026-04-30 12:28 52.28779 5.00180 5036 ft 283 kts 107°
2026-04-30 12:28 52.28251 5.03316 5945 ft 288 kts 106°
2026-04-30 12:28 52.27726 5.06491 6845 ft 291 kts 106°
2026-04-30 12:28 52.27189 5.09703 7741 ft 295 kts 106°
2026-04-30 12:29 52.26634 5.12949 8630 ft 299 kts 106°
2026-04-30 12:29 52.26063 5.16241 9561 ft 304 kts 107°
2026-04-30 12:29 52.25480 5.19578 10396 ft 313 kts 106°
2026-04-30 12:29 52.24846 5.23115 10703 ft 337 kts 110°
2026-04-30 12:30 52.23875 5.26731 11019 ft 359 kts 120°
2026-04-30 12:30 52.22472 5.30165 11530 ft 368 kts 127°
2026-04-30 12:30 52.20973 5.33583 12293 ft 373 kts 127°
2026-04-30 12:30 52.19495 5.36984 12997 ft 377 kts 127°
2026-04-30 12:31 52.17971 5.40499 13741 ft 381 kts 126°
2026-04-30 12:31 52.16437 5.44040 14458 ft 386 kts 126°
2026-04-30 12:31 52.14885 5.47618 15164 ft 389 kts 127°
2026-04-30 12:31 52.13307 5.51236 15871 ft 393 kts 127°
2026-04-30 12:32 52.11711 5.54879 16511 ft 397 kts 127°
2026-04-30 12:32 52.10103 5.58546 17108 ft 400 kts 127°
2026-04-30 12:32 52.08478 5.62248 17713 ft 404 kts 127°
2026-04-30 12:32 52.06835 5.65992 18306 ft 407 kts 127°
2026-04-30 12:33 52.05062 5.69598 18843 ft 410 kts 132°
2026-04-30 12:33 52.03184 5.73096 19422 ft 414 kts 133°
2026-04-30 12:33 52.01284 5.76636 20005 ft 417 kts 132°
2026-04-30 12:33 51.99373 5.80196 20528 ft 420 kts 132°
2026-04-30 12:34 51.97452 5.83777 21013 ft 423 kts 132°
2026-04-30 12:34 51.95515 5.87384 21507 ft 426 kts 132°
2026-04-30 12:34 51.93564 5.91024 22004 ft 429 kts 132°
2026-04-30 12:34 51.91603 5.94685 22463 ft 432 kts 132°
2026-04-30 12:35 51.89626 5.98376 22918 ft 434 kts 132°
2026-04-30 12:35 51.87638 6.02074 23349 ft 437 kts 132°
2026-04-30 12:35 51.85632 6.05798 23775 ft 440 kts 132°
2026-04-30 12:35 51.83613 6.09532 24190 ft 443 kts 132°
2026-04-30 12:36 51.81574 6.13285 24578 ft 445 kts 133°
2026-04-30 12:36 51.79515 6.17050 24979 ft 448 kts 133°
2026-04-30 12:36 51.77446 6.20825 25347 ft 451 kts 133°
2026-04-30 12:36 51.75361 6.24623 25725 ft 453 kts 133°
2026-04-30 12:37 51.73262 6.28449 26094 ft 456 kts 133°
2026-04-30 12:37 51.71160 6.32287 26458 ft 458 kts 133°
2026-04-30 12:37 51.69041 6.36150 26818 ft 460 kts 133°
2026-04-30 12:37 51.66911 6.40017 27154 ft 463 kts 133°
2026-04-30 12:38 51.64769 6.43905 27499 ft 465 kts 133°
2026-04-30 12:38 51.62617 6.47807 27805 ft 467 kts 133°
2026-04-30 12:38 51.60453 6.51727 28127 ft 470 kts 133°
2026-04-30 12:38 51.58281 6.55659 28443 ft 472 kts 133°
2026-04-30 12:39 51.56092 6.59611 28742 ft 474 kts 133°
2026-04-30 12:39 51.53894 6.63560 29036 ft 476 kts 133°
2026-04-30 12:39 51.51677 6.67534 29337 ft 478 kts 133°
2026-04-30 12:39 51.49487 6.71460 29712 ft 478 kts 133°
2026-04-30 12:40 51.47249 6.75473 30127 ft 476 kts 133°
2026-04-30 12:40 51.45037 6.79428 30502 ft 475 kts 133°
2026-04-30 12:40 51.42830 6.83360 30885 ft 475 kts 133°
2026-04-30 12:40 51.40529 6.87050 31259 ft 473 kts 141°
2026-04-30 12:41 51.37902 6.90192 31619 ft 470 kts 149°
2026-04-30 12:41 51.35138 6.92967 32008 ft 469 kts 149°
2026-04-30 12:41 51.32371 6.95742 32350 ft 469 kts 149°
2026-04-30 12:41 51.29610 6.98515 32695 ft 468 kts 149°
2026-04-30 12:42 51.26846 7.01291 32953 ft 469 kts 149°
2026-04-30 12:42 51.24083 7.04065 33011 ft 469 kts 149°
2026-04-30 12:42 51.18751 7.09412 33003 ft 469 kts 149°
2026-04-30 12:43 51.13383 7.14737 33009 ft 469 kts 149°
2026-04-30 12:43 51.07859 7.20251 33009 ft 469 kts 149°
2026-04-30 12:44 51.02330 7.25754 33008 ft 469 kts 149°
2026-04-30 12:44 50.96786 7.31244 33006 ft 469 kts 149°
2026-04-30 12:45 50.91242 7.36719 33008 ft 469 kts 150°
2026-04-30 12:45 50.85703 7.42166 33001 ft 469 kts 150°
2026-04-30 12:46 50.80158 7.47596 32999 ft 469 kts 150°
2026-04-30 12:46 50.74598 7.53030 33002 ft 469 kts 149°
2026-04-30 12:47 50.69074 7.58510 32999 ft 470 kts 149°
2026-04-30 12:47 50.63618 7.64193 33009 ft 470 kts 148°
2026-04-30 12:48 50.58177 7.69912 33002 ft 470 kts 148°
2026-04-30 12:48 50.52746 7.75527 33016 ft 470 kts 148°
2026-04-30 12:49 50.46997 7.80223 33006 ft 467 kts 159°
2026-04-30 12:49 50.40953 7.84087 33012 ft 467 kts 160°
2026-04-30 12:50 50.34898 7.87901 33430 ft 468 kts 160°
2026-04-30 12:50 50.31913 7.89786 33756 ft 468 kts 160°
2026-04-30 12:50 50.28895 7.91696 34097 ft 467 kts 160°
2026-04-30 12:51 50.25891 7.93600 34426 ft 466 kts 159°
2026-04-30 12:51 50.22876 7.95520 34734 ft 466 kts 160°
2026-04-30 12:51 50.19871 7.97428 35021 ft 466 kts 160°
2026-04-30 12:51 50.16871 7.99325 35286 ft 466 kts 160°
2026-04-30 12:52 50.13856 8.01218 35564 ft 466 kts 160°
2026-04-30 12:52 50.10854 8.03100 35842 ft 465 kts 160°
2026-04-30 12:52 50.07854 8.04981 35984 ft 465 kts 160°
2026-04-30 12:52 50.04855 8.06864 36012 ft 464 kts 160°
2026-04-30 12:53 49.98878 8.10617 36008 ft 462 kts 160°
2026-04-30 12:53 49.92914 8.14351 36010 ft 462 kts 160°
2026-04-30 12:54 49.86969 8.18048 36006 ft 462 kts 160°
2026-04-30 12:54 49.80998 8.21745 36007 ft 462 kts 160°
2026-04-30 12:55 49.75023 8.25446 36007 ft 462 kts 160°
2026-04-30 12:55 49.69060 8.29142 36013 ft 462 kts 160°
2026-04-30 12:56 49.63084 8.32815 36021 ft 463 kts 160°
2026-04-30 12:56 49.57098 8.36483 36017 ft 462 kts 160°
2026-04-30 12:57 49.51121 8.40153 36017 ft 462 kts 160°
2026-04-30 12:57 49.45145 8.43823 36021 ft 462 kts 160°
2026-04-30 12:58 49.39168 8.47466 36017 ft 462 kts 160°
2026-04-30 12:58 49.33186 8.51095 36013 ft 462 kts 160°
2026-04-30 12:59 49.27204 8.54719 36017 ft 462 kts 160°
2026-04-30 12:59 49.21222 8.58353 36018 ft 462 kts 160°
2026-04-30 13:00 49.15241 8.61968 36020 ft 462 kts 160°
2026-04-30 13:00 49.09257 8.65568 35985 ft 463 kts 160°
2026-04-30 13:01 49.06256 8.67366 35736 ft 462 kts 160°
2026-04-30 13:01 49.03263 8.69159 35415 ft 462 kts 160°
2026-04-30 13:01 49.00248 8.70961 34477 ft 468 kts 160°
2026-04-30 13:01 48.97205 8.72775 33566 ft 472 kts 160°
2026-04-30 13:02 48.94163 8.74581 32514 ft 479 kts 161°
2026-04-30 13:02 48.90929 8.76070 31439 ft 482 kts 170°
2026-04-30 13:02 48.87649 8.76766 30453 ft 483 kts 179°
2026-04-30 13:02 48.84297 8.76694 29351 ft 484 kts 188°
2026-04-30 13:03 48.80977 8.75894 28352 ft 483 kts 192°
2026-04-30 13:03 48.77674 8.74991 27513 ft 480 kts 192°
2026-04-30 13:03 48.74392 8.74099 26578 ft 478 kts 192°
2026-04-30 13:03 48.71121 8.73217 25688 ft 476 kts 192°
2026-04-30 13:04 48.67885 8.72355 24942 ft 469 kts 192°
2026-04-30 13:04 48.64686 8.71508 24210 ft 462 kts 192°
2026-04-30 13:04 48.61539 8.70679 23503 ft 456 kts 192°
2026-04-30 13:04 48.58427 8.69856 22801 ft 451 kts 192°
2026-04-30 13:05 48.55359 8.69041 22151 ft 445 kts 192°
2026-04-30 13:05 48.52318 8.68232 21512 ft 440 kts 192°
2026-04-30 13:05 48.49324 8.67439 20902 ft 435 kts 192°
2026-04-30 13:06 48.43425 8.65883 19747 ft 425 kts 192°
2026-04-30 13:06 48.40569 8.65129 19223 ft 419 kts 192°
2026-04-30 13:06 48.37712 8.64373 18689 ft 415 kts 192°
2026-04-30 13:06 48.34889 8.63581 18191 ft 409 kts 193°
2026-04-30 13:07 48.32112 8.62751 17687 ft 405 kts 193°
2026-04-30 13:07 48.29361 8.61906 17186 ft 401 kts 193°
2026-04-30 13:07 48.26648 8.61061 16679 ft 397 kts 194°
2026-04-30 13:07 48.23952 8.60225 16171 ft 393 kts 193°
2026-04-30 13:08 48.21280 8.59408 15654 ft 390 kts 193°
2026-04-30 13:08 48.18624 8.58603 15113 ft 390 kts 193°
2026-04-30 13:08 48.15977 8.57808 14585 ft 387 kts 193°
2026-04-30 13:08 48.13341 8.57024 14036 ft 385 kts 193°
2026-04-30 13:09 48.10719 8.56245 13476 ft 383 kts 193°
2026-04-30 13:09 48.08115 8.55470 12918 ft 381 kts 193°
2026-04-30 13:09 48.06396 8.54959 12532 ft 381 kts 193°
2026-04-30 13:09 48.03797 8.54188 11952 ft 378 kts 193°
2026-04-30 13:10 48.01227 8.53413 11443 ft 375 kts 194°
2026-04-30 13:10 47.98712 8.52650 11169 ft 364 kts 193°
2026-04-30 13:10 47.96241 8.51904 10769 ft 359 kts 193°
2026-04-30 13:10 47.93798 8.51171 10370 ft 355 kts 194°
2026-04-30 13:11 47.91407 8.50454 10197 ft 346 kts 194°
2026-04-30 13:11 47.89865 8.49993 10094 ft 338 kts 194°
2026-04-30 13:11 47.88445 8.49723 10364 ft 320 kts 187°
2026-04-30 13:11 47.86270 8.49247 9690 ft 309 kts 197°
2026-04-30 13:12 47.84421 8.47975 9484 ft 284 kts 219°
2026-04-30 13:12 47.82914 8.46142 8980 ft 279 kts 224°
2026-04-30 13:12 47.81467 8.44240 8641 ft 270 kts 224°
2026-04-30 13:13 47.78785 8.40750 8380 ft 250 kts 223°
2026-04-30 13:13 47.77506 8.39074 8080 ft 242 kts 223°
2026-04-30 13:13 47.74977 8.35818 7380 ft 239 kts 224°
2026-04-30 13:14 47.73742 8.34235 6982 ft 235 kts 224°
2026-04-30 13:14 47.72377 8.32905 6537 ft 239 kts 200°
2026-04-30 13:14 47.69111 8.33055 6150 ft 246 kts 174°
2026-04-30 13:15 47.67424 8.33465 5859 ft 246 kts 173°
2026-04-30 13:15 47.64055 8.34291 5370 ft 243 kts 174°
2026-04-30 13:15 47.62394 8.34782 5103 ft 247 kts 162°
2026-04-30 13:16 47.60911 8.36154 4768 ft 258 kts 141°
2026-04-30 13:16 47.59614 8.37939 4432 ft 249 kts 138°
2026-04-30 13:16 47.58385 8.39658 4105 ft 235 kts 139°
2026-04-30 13:17 47.56104 8.42797 3556 ft 212 kts 139°
2026-04-30 13:17 47.55055 8.44236 3244 ft 198 kts 139°
2026-04-30 13:17 47.53195 8.46784 2766 ft 165 kts 140°
2026-04-30 13:18 47.52379 8.47902 2552 ft 157 kts 140°
2026-04-30 13:18 47.50835 8.50025 2115 ft 152 kts 139°
2026-04-30 13:18 47.50067 8.51084 1939 ft 151 kts 140°
2026-04-30 13:19 47.49306 8.52141 1763 ft 149 kts 139°
2026-04-30 13:19 47.48540 8.53170 1538 ft 148 kts 140°
2026-04-30 13:19 47.47785 8.54195 1409 ft 143 kts 138°
2026-04-30 13:19 47.47148 8.55054 1383 ft 101 kts 137°
2026-04-30 13:20 47.46790 8.55542 1397 ft 41 kts 142°
2026-04-30 13:20 47.46605 8.55679 1394 ft 24 kts 168°
2026-04-30 13:20 47.46477 8.55720 1398 ft 16 kts 167°
2026-04-30 13:20 47.46411 8.55744 1400 ft 4 kts 160°
2026-04-30 13:21 47.46375 8.55772 1409 ft 8 kts 145°
2026-04-30 13:21 47.46330 8.55834 1407 ft 7 kts 137°
2026-04-30 13:21 47.46286 8.55890 1407 ft 12 kts 138°
2026-04-30 13:22 47.46142 8.55997 1406 ft 10 kts 186°
2026-04-30 13:22 47.46035 8.55980 1407 ft 18 kts 186°
2026-04-30 13:22 47.45835 8.55898 1416 ft 0 kts 200°
2026-04-30 13:24 47.45802 8.55884 1410 ft 11 kts 191°
2026-04-30 13:25 47.45603 8.55851 1409 ft 17 kts 187°
2026-04-30 13:25 47.45485 8.55955 1413 ft 7 kts 153°
2026-04-30 13:26 47.45409 8.55945 1407 ft 0 kts 185°